BEL7PK EBBR-LJLJ

Flight info

Callsign BEL7PK
Flight time 1h 19m
Altitude 35000
Route SOPOK Y863 ROPUV L607 EMGOD DCT BOMBI DCT DETEV DCT DINKU/N0465F310 L603 OLETU Z106 BAVAX M867 RADIZ DCT LUMUS LUMUS4L
Aircraft A319/M-SDE3FGHIRWY/LB1

Departure

Time 2026-05-04 08:49
Airport Brussels Airport (EBBR)

Arrival

Time 2026-05-04 10:08
Airport Ljubljana Jože Pučnik Airport (LJLJ)
Time Latitude Longitude Altitude Speed Heading
2026-05-04 08:24 50.90247 4.48036 118 ft 0 kts 156°
2026-05-04 08:38 50.90250 4.48034 118 ft 2 kts 156°
2026-05-04 08:38 50.90264 4.48024 117 ft 2 kts 156°
2026-05-04 08:38 50.90278 4.48014 116 ft 2 kts 156°
2026-05-04 08:40 50.90323 4.47954 114 ft 0 kts 65°
2026-05-04 08:43 50.90324 4.47954 114 ft 0 kts 65°
2026-05-04 08:43 50.90329 4.47975 114 ft 3 kts 67°
2026-05-04 08:44 50.90342 4.48020 114 ft 5 kts 57°
2026-05-04 08:44 50.90385 4.48037 113 ft 8 kts 337°
2026-05-04 08:46 50.90669 4.48879 114 ft 18 kts 65°
2026-05-04 08:46 50.90723 4.49068 116 ft 19 kts 66°
2026-05-04 08:46 50.90779 4.49261 117 ft 19 kts 66°
2026-05-04 08:46 50.90837 4.49464 113 ft 20 kts 66°
2026-05-04 08:47 50.90899 4.49676 111 ft 22 kts 66°
2026-05-04 08:47 50.90989 4.49869 107 ft 19 kts 39°
2026-05-04 08:47 50.91096 4.49946 105 ft 16 kts 10°
2026-05-04 08:47 50.91131 4.49852 104 ft 12 kts 248°
2026-05-04 08:48 50.91108 4.49773 105 ft 9 kts 246°
2026-05-04 08:48 50.91019 4.49466 107 ft 65 kts 245°
2026-05-04 08:48 50.90726 4.48448 108 ft 133 kts 245°
2026-05-04 08:48 50.90273 4.46878 318 ft 169 kts 246°
2026-05-04 08:49 50.89793 4.45200 970 ft 172 kts 246°
2026-05-04 08:50 50.84226 4.47497 4132 ft 252 kts 131°
2026-05-04 08:50 50.83042 4.49654 4749 ft 268 kts 132°
2026-05-04 08:51 50.81799 4.51891 5598 ft 273 kts 132°
2026-05-04 08:51 50.80547 4.54135 6475 ft 276 kts 132°
2026-05-04 08:51 50.79271 4.56416 7361 ft 280 kts 133°
2026-05-04 08:51 50.77985 4.58715 8234 ft 283 kts 133°
2026-05-04 08:52 50.76702 4.61008 9078 ft 287 kts 133°
2026-05-04 08:52 50.75371 4.63384 9921 ft 291 kts 133°
2026-05-04 08:52 50.74034 4.65777 10644 ft 299 kts 133°
2026-05-04 08:52 50.72625 4.68308 11089 ft 316 kts 133°
2026-05-04 08:53 50.71140 4.70979 11472 ft 334 kts 132°
2026-05-04 08:54 50.64819 4.97147 15824 ft 384 kts 109°
2026-05-04 08:55 50.64026 5.01184 16445 ft 388 kts 109°
2026-05-04 08:55 50.63225 5.05236 17050 ft 392 kts 109°
2026-05-04 08:55 50.62416 5.09320 17643 ft 395 kts 109°
2026-05-04 08:55 50.61594 5.13460 18210 ft 399 kts 109°
2026-05-04 08:57 50.52164 5.39866 21842 ft 410 kts 142°
2026-05-04 09:01 50.23659 5.86332 27786 ft 466 kts 110°
2026-05-04 09:01 50.22852 5.91212 28084 ft 470 kts 109°
2026-05-04 09:01 50.22055 5.96187 28387 ft 473 kts 109°
2026-05-04 09:01 50.21250 6.01122 28770 ft 473 kts 109°
2026-05-04 09:02 50.20420 6.06088 29204 ft 472 kts 110°
2026-05-04 09:02 50.19622 6.11039 29642 ft 473 kts 107°
2026-05-04 09:02 50.19038 6.16087 30043 ft 476 kts 102°
2026-05-04 09:02 50.18715 6.21180 30451 ft 479 kts 97°
2026-05-04 09:03 50.18664 6.26369 30852 ft 481 kts 92°
2026-05-04 09:03 50.18877 6.31578 31218 ft 483 kts 88°
2026-05-04 09:03 50.19207 6.36766 31597 ft 483 kts 87°
2026-05-04 09:03 50.19561 6.41979 31976 ft 482 kts 87°
2026-05-04 09:04 50.19903 6.47100 32362 ft 481 kts 87°
2026-05-04 09:04 50.20234 6.52272 32750 ft 479 kts 88°
2026-05-04 09:04 50.20550 6.57384 33116 ft 478 kts 88°
2026-05-04 09:04 50.20861 6.62533 33459 ft 477 kts 88°
2026-05-04 09:05 50.21171 6.67696 33736 ft 478 kts 88°
2026-05-04 09:05 50.21475 6.72794 33983 ft 479 kts 88°
2026-05-04 09:05 50.21782 6.77984 34242 ft 479 kts 89°
2026-05-04 09:05 50.21973 6.83140 34493 ft 477 kts 92°
2026-05-04 09:06 50.21964 6.88319 34744 ft 475 kts 96°
2026-05-04 09:07 50.20112 7.24035 34994 ft 473 kts 98°
2026-05-04 09:08 50.19833 7.29139 34998 ft 474 kts 98°
2026-05-04 09:08 50.19070 7.39317 35002 ft 472 kts 102°
2026-05-04 09:09 50.18165 7.49352 34997 ft 472 kts 102°
2026-05-04 09:09 50.17242 7.59500 34996 ft 473 kts 102°
2026-05-04 09:10 50.16318 7.69601 34989 ft 473 kts 102°
2026-05-04 09:10 50.15387 7.79705 34989 ft 473 kts 102°
2026-05-04 09:11 50.14447 7.89813 34991 ft 474 kts 102°
2026-05-04 09:11 50.13494 7.99950 34990 ft 473 kts 102°
2026-05-04 09:12 50.12541 8.10009 34994 ft 473 kts 102°
2026-05-04 09:14 50.08615 8.50488 34998 ft 474 kts 102°
2026-05-04 09:14 50.07615 8.60559 34996 ft 474 kts 102°
2026-05-04 09:15 50.06555 8.70691 34997 ft 473 kts 105°
2026-05-04 09:15 50.04936 8.80456 34997 ft 469 kts 112°
2026-05-04 09:17 49.92744 9.21325 34992 ft 465 kts 120°
2026-05-04 09:18 49.89906 9.30346 34993 ft 466 kts 120°
2026-05-04 09:18 49.87079 9.39297 35000 ft 466 kts 120°
2026-05-04 09:19 49.83975 9.48064 34997 ft 463 kts 126°
2026-05-04 09:19 49.80253 9.56129 35001 ft 460 kts 133°
2026-05-04 09:20 49.76010 9.63336 34989 ft 456 kts 139°
2026-05-04 09:20 49.71368 9.70061 34993 ft 455 kts 141°
2026-05-04 09:21 49.66758 9.76713 34986 ft 455 kts 141°
2026-05-04 09:21 49.62157 9.83344 34979 ft 455 kts 141°
2026-05-04 09:22 49.57545 9.89981 34987 ft 455 kts 141°
2026-05-04 09:22 49.52911 9.96633 34984 ft 455 kts 141°
2026-05-04 09:23 49.48291 10.03241 34989 ft 456 kts 141°
2026-05-04 09:23 49.43662 10.09849 34997 ft 457 kts 141°
2026-05-04 09:25 49.25026 10.36278 35004 ft 459 kts 141°
2026-05-04 09:26 49.20388 10.43001 35000 ft 460 kts 139°
2026-05-04 09:26 49.15839 10.49829 35001 ft 460 kts 139°
2026-05-04 09:27 49.11295 10.56585 35004 ft 460 kts 139°
2026-05-04 09:27 49.06707 10.63376 35004 ft 460 kts 139°
2026-05-04 09:28 49.02112 10.70154 35001 ft 460 kts 140°
2026-05-04 09:28 48.97530 10.76883 35000 ft 460 kts 140°
2026-05-04 09:29 48.92907 10.83657 35004 ft 460 kts 140°
2026-05-04 09:29 48.88317 10.90377 35006 ft 460 kts 140°
2026-05-04 09:30 48.83727 10.97088 35003 ft 461 kts 140°
2026-05-04 09:30 48.79104 11.03829 35011 ft 463 kts 140°
2026-05-04 09:31 48.74479 11.10539 35009 ft 462 kts 140°
2026-05-04 09:31 48.69826 11.17259 35009 ft 462 kts 140°
2026-05-04 09:32 48.65272 11.24040 35015 ft 463 kts 136°
2026-05-04 09:34 48.49113 11.54457 35013 ft 463 kts 141°
2026-05-04 09:34 48.43941 11.59938 35017 ft 457 kts 155°
2026-05-04 09:35 48.38112 11.63458 35011 ft 450 kts 168°
2026-05-04 09:35 48.32103 11.66003 35012 ft 453 kts 163°
2026-05-04 09:37 48.14535 11.86381 35011 ft 464 kts 140°
2026-05-04 09:37 48.12175 11.89648 35009 ft 464 kts 140°
2026-05-04 09:38 48.07422 11.96219 35010 ft 464 kts 140°
2026-05-04 09:38 48.02705 12.02702 35008 ft 464 kts 140°
2026-05-04 09:39 47.97961 12.09207 35014 ft 465 kts 140°
2026-05-04 09:39 47.93197 12.15683 35012 ft 465 kts 142°
2026-05-04 09:40 47.88252 12.21912 35022 ft 465 kts 142°
2026-05-04 09:40 47.83347 12.28072 35017 ft 465 kts 142°
2026-05-04 09:42 47.63639 12.52683 35059 ft 464 kts 140°
2026-05-04 09:43 47.59094 12.59455 35068 ft 466 kts 134°
2026-05-04 09:43 47.54705 12.66503 35066 ft 466 kts 135°
2026-05-04 09:44 47.50315 12.73536 35087 ft 466 kts 135°
2026-05-04 09:46 47.32726 13.01496 35021 ft 467 kts 135°
2026-05-04 09:46 47.30527 13.04970 34722 ft 465 kts 135°
2026-05-04 09:46 47.28325 13.08447 34213 ft 463 kts 134°
2026-05-04 09:47 47.26133 13.11900 33541 ft 461 kts 134°
2026-05-04 09:47 47.23947 13.15340 32828 ft 461 kts 134°
2026-05-04 09:49 47.08610 13.39358 27665 ft 462 kts 134°
2026-05-04 09:49 47.06424 13.42765 27167 ft 459 kts 134°
2026-05-04 09:49 47.04277 13.46106 26672 ft 454 kts 134°
2026-05-04 09:51 46.91612 13.65729 23518 ft 430 kts 134°
2026-05-04 09:51 46.89576 13.68872 23004 ft 426 kts 134°
2026-05-04 09:51 46.87539 13.72013 22487 ft 422 kts 135°
2026-05-04 09:51 46.85527 13.75110 21972 ft 419 kts 135°
2026-05-04 09:52 46.83556 13.78143 21457 ft 415 kts 135°
2026-05-04 09:52 46.81573 13.81188 20942 ft 411 kts 135°
2026-05-04 09:52 46.79602 13.84212 20429 ft 407 kts 135°
2026-05-04 09:52 46.77682 13.87155 19925 ft 404 kts 135°
2026-05-04 09:53 46.75764 13.90091 19412 ft 400 kts 135°
2026-05-04 09:53 46.73853 13.93014 18901 ft 397 kts 135°
2026-05-04 09:53 46.71964 13.95900 18390 ft 393 kts 135°
2026-05-04 09:53 46.70083 13.98772 17904 ft 390 kts 135°
2026-05-04 09:54 46.68223 14.01606 17391 ft 386 kts 135°
2026-05-04 09:54 46.66379 14.04412 16866 ft 382 kts 135°
2026-05-04 09:54 46.64555 14.07185 16389 ft 379 kts 135°
2026-05-04 09:54 46.62738 14.09942 15884 ft 376 kts 135°
2026-05-04 09:55 46.60955 14.12639 15384 ft 373 kts 136°
2026-05-04 09:55 46.59032 14.15116 14890 ft 370 kts 144°
2026-05-04 09:55 46.56911 14.17215 14387 ft 366 kts 151°
2026-05-04 09:55 46.54702 14.18996 13890 ft 363 kts 153°
2026-05-04 09:56 46.52469 14.20728 13386 ft 361 kts 153°
2026-05-04 09:56 46.50277 14.22419 12893 ft 359 kts 153°
2026-05-04 09:56 46.48083 14.24115 12383 ft 356 kts 153°
2026-05-04 09:56 46.45907 14.25801 11882 ft 353 kts 153°
2026-05-04 09:57 46.43759 14.27467 11392 ft 350 kts 153°
2026-05-04 09:57 46.41640 14.29109 10985 ft 344 kts 153°
2026-05-04 09:57 46.39558 14.30723 10776 ft 331 kts 153°
2026-05-04 09:57 46.37576 14.32257 10602 ft 318 kts 153°
2026-05-04 09:58 46.35659 14.33741 10440 ft 306 kts 154°
2026-05-04 09:58 46.33832 14.35151 10292 ft 294 kts 154°
2026-05-04 09:58 46.32067 14.36512 10149 ft 283 kts 154°
2026-05-04 10:00 46.20543 14.46707 7719 ft 276 kts 142°
2026-05-04 10:00 46.19057 14.48468 7378 ft 275 kts 142°
2026-05-04 10:02 46.08987 14.60137 5644 ft 242 kts 143°
2026-05-04 10:04 46.10202 14.68818 4112 ft 207 kts 321°
2026-05-04 10:04 46.11209 14.67456 4088 ft 194 kts 308°
2026-05-04 10:04 46.12051 14.65973 4073 ft 193 kts 305°
2026-05-04 10:04 46.12837 14.64475 4024 ft 183 kts 304°
2026-05-04 10:05 46.13578 14.63017 3773 ft 179 kts 303°
2026-05-04 10:05 46.14302 14.61584 3523 ft 175 kts 303°
2026-05-04 10:05 46.15017 14.60172 3281 ft 170 kts 303°
2026-05-04 10:05 46.15701 14.58825 3052 ft 166 kts 304°
2026-05-04 10:06 46.16370 14.57512 2830 ft 157 kts 304°
2026-05-04 10:06 46.17000 14.56276 2623 ft 150 kts 304°
2026-05-04 10:06 46.17603 14.55094 2455 ft 144 kts 304°
2026-05-04 10:08 46.21128 14.48193 1356 ft 141 kts 307°
2026-05-04 10:08 46.21708 14.47061 1206 ft 136 kts 307°
2026-05-04 10:08 46.22095 14.46301 1224 ft 49 kts 304°
2026-05-04 10:08 46.22189 14.46116 1228 ft 5 kts 321°
2026-05-04 10:09 46.22224 14.46110 1229 ft 5 kts 21°
2026-05-04 10:09 46.22257 14.46139 1230 ft 5 kts 36°
2026-05-04 10:09 46.22290 14.46174 1230 ft 6 kts 36°
2026-05-04 10:09 46.22327 14.46213 1231 ft 6 kts 37°
2026-05-04 10:10 46.22364 14.46222 1232 ft 4 kts 336°
2026-05-04 10:10 46.22389 14.46185 1233 ft 6 kts 308°
2026-05-04 10:10 46.22419 14.46127 1235 ft 8 kts 307°
2026-05-04 10:10 46.22461 14.46045 1236 ft 11 kts 307°
2026-05-04 10:11 46.22510 14.45948 1239 ft 11 kts 306°
2026-05-04 10:11 46.22555 14.45860 1243 ft 10 kts 307°
2026-05-04 10:11 46.22595 14.45783 1246 ft 9 kts 307°
2026-05-04 10:11 46.22631 14.45712 1249 ft 8 kts 307°
2026-05-04 10:12 46.22666 14.45644 1251 ft 8 kts 307°
2026-05-04 10:12 46.22704 14.45570 1252 ft 10 kts 307°
2026-05-04 10:12 46.22749 14.45481 1254 ft 11 kts 307°
2026-05-04 10:12 46.22799 14.45384 1256 ft 12 kts 307°
2026-05-04 10:13 46.22854 14.45331 1259 ft 9 kts 28°
2026-05-04 10:13 46.22908 14.45388 1262 ft 9 kts 37°
2026-05-04 10:13 46.22947 14.45417 1264 ft 4 kts 18°
2026-05-04 10:13 46.22963 14.45431 1265 ft 1 kts 37°
2026-05-04 10:14 46.22973 14.45441 1266 ft 1 kts 36°
2026-05-04 10:14 46.22979 14.45448 1266 ft 0 kts 37°
2026-05-04 10:16 46.23001 14.45471 1267 ft 0 kts 37°